Location: Table Mountain
(47.2500°N, 120.5778°W)
Time: 04:52:14
(UTC-07:00)

Envisat - Pass Details

Date: 11 October 2017
Orbit: 764 x 766 km, 98.2° (Epoch: 23 October)

Event Time Altitude Azimuth Distance (km) Brightness Sun altitude
Exits shadow 20:51:09 59° 186° (S) 879 3.1 -26.0°
Maximum altitude 20:52:05 79° 256° (WSW) 784 3.0 -26.1°
Drops below altitude 10° 20:57:11 10° 344° (NNW) 2,309 5.9 -26.9°
Sets 20:59:30 0° 346° (NNW) 3,240 6.7 -27.3°
